Location: Newark
(45.4422°N, 16.2769°E)
Time: 14:34:38
(UTC+00:00)

Courier 1B - Pass Details

Date: 19 December 2019
Orbit: 962 x 1209 km, 28.3° (Epoch: 17 January)

Event Time Altitude Azimuth Distance (km) Brightness Sun altitude
Rises 17:36:11 0° 231° (SW) 3,692 11.5 -24.0°
Reaches altitude 10° 17:39:44 10° 212° (SSW) 2,780 10.4 -24.6°
Maximum altitude 17:43:59 18° 173° (S) 2,318 9.5 -25.3°
Enters shadow 17:46:07 15° 151° (SSE) 2,477 9.4 -25.7°
Drops below altitude 10° 17:48:23 10° 134° (SE) 2,891 - -26.1°
Sets 17:52:11 0° 116° (ESE) 3,899 - -26.8°
